SCP
0 0 0 0 0 0 0 -0 -0 -0 -0 -0 -0 -0 -0 -0 0 0 0 0 0 0 0 -0 -0 -0 -0 -0 -0 -0 -0 -0 -0 -0 -0 -0 -0 -0 -0 -0 -0 -0 -0
0 0 0 0 0 0 0 0 0 0 0 -0 -0 0 0 0 -0 0 0 0 0 0 -0 0 -0 0 -0 -0 -0 -0 -0 -0 -0 -0 -0 -0 -0 -0 -0 -0 -0 -0 -0
0 0 0 0 0 0 0 0 0 0 0 0 -0 0 0 0 -0 0 0 0 0 0 0 0 -0 0 -0 -0 -0 -0 -0 -0 -0 -0 -0 0 -0 -0 -0 -0 -0 -0 -0
0 0 0 0 0 0 0 0 0 0 0 0 0 0 0 0 0 0 0 0 0 0 0 -0 0 0 -0 -0 -0 -0 -0 -0 -0 -0 0 0 -0 -0 -0 -0 -0 -0 -0
0 0 0 0 0 0 0 0 0 0 0 0 0 0 0 0 0 0 0 0 0 0 0 0 0 0 0 0 0 -0 0 0 -0 0 0 0 0 -0 -0 -0 -0 -0 0
0 0 0 0 0 0 0 0 0 0 0 0 0 0 0 0 0 0 0 0 0 0 0 0 0 0 0 0 0 0 0 0 0 0 0 0 0 -0 -0 -0 -0 -0 0
0 0 0 0 1 1 0 0 0 0 0 0 0 0 0 0 0 0 0 0 0 0 0 0 0 0 0 0 0 0 0 0 0 0 0 0 -0 -0 -0 -0 0 0 0
0 0 0 1 1 1 0 0 0 0 0 0 0 0 0 0 0 0 0 0 0 0 0 0 0 0 0 0 0 0 0 0 0 0 0 0 0 0 0 0 0 0 0
1 1 1 1 1 1 1 0 0 0 0 0 0 0 0 0 0 0 0 0 0 0 0 0 0 0 0 0 0 0 0 0 0 0 0 0 0 0 0 0 0 0 0
1 1 1 1 1 1 1 0 0 0 0 0 0 0 0 0 0 0 0 0 0 0 0 0 0 0 0 0 0 0 0 0 0 0 0 0 0 0 0 0 0 0 0
2 1 1 1 1 1 1 0 0 0 0 0 0 0 0 0 0 0 0 0 0 0 0 0 0 0 0 0 0 0 0 0 0 0 0 0 0 0 0 0 0 0 0
1 1 1 1 1 1 1 1 0 1 0 0 0 0 0 0 0 0 0 0 0 0 0 0 0 0 0 0 0 0 0 0 0 0 0 0 0 0 0 0 0 0 0
1 1 1 1 2 2 2 1 1 1 0 0 0 0 0 0 0 0 0 0 0 0 0 0 0 0 0 0 0 0 0 0 0 0 0 0 0 0 0 0 0 0 -0
0 1 0 1 1 1 2 1 1 1 1 0 0 0 0 0 0 0 0 0 0 0 0 0 0 0 0 0 0 0 0 0 0 0 0 0 0 0 0 0 0 0 0
0 0 0 0 1 1 1 1 1 1 0 0 0 0 0 0 0 0 0 0 0 0 0 0 0 0 0 0 0 0 0 0 0 0 0 0 0 0 0 0 0 0 0
0 0 0 0 1 1 1 1 1 1 1 0 0 0 0 0 0 0 0 0 0 0 0 0 0 0 0 0 0 0 0 0 0 0 0 0 0 0 0 0 0 0 0
0 0 0 0 0 1 1 1 1 1 0 0 0 0 0 0 0 0 0 0 0 0 0 0 0 0 0 0 0 0 0 0 0 0 0 0 0 0 0 0 0 0 0
0 0 0 0 0 0 0 0 0 0 0 0 0 0 0 0 0 0 0 0 0 0 0 0 0 0 0 0 0 0 0 0 0 0 0 0 0 0 0 0 0 0 0
0 0 0 0 0 0 0 0 0 0 0 0 0 0 0 0 0 0 0 0 0 0 0 0 0 0 0 0 0 0 0 0 0 0 0 0 0 0 0 0 0 0 0
0 0 0 0 0 0 1 0 0 0 0 0 0 0 0 0 0 0 0 0 0 0 0 0 0 0 0 0 0 0 0 0 0 0 0 0 0 0 0 0 0 0 0
0 0 0 0 0 0 1 0 0 0 0 1 0 0 0 0 0 0 0 0 0 0 0 0 0 0 0 0 0 0 0 0 0 0 0 0 0 0 0 0 0 0 0
0 0 0 0 0 0 0 0 0 0 0 0 0 0 0 0 0 0 0 0 0 0 0 0 0 0 0 0 0 0 0 0 0 0 0 0 0 0 0 0 0 0 0
0 0 0 0 0 0 0 0 0 0 0 0 0 0 0 0 0 0 0 0 0 0 0 0 0 0 0 0 0 0 0 0 0 0 0 0 0 0 0 0 0 0 0
0 0 0 0 0 0 0 0 0 0 0 0 0 0 0 0 0 0 0 0 0 0 0 0 0 0 0 0 0 0 0 0 0 0 0 0 0 0 0 0 0 0 0
0 0 0 0 0 0 0 0 0 0 0 0 0 0 0 0 0 0 0 0 0 0 0 0 0 0 0 0 0 0 0 0 0 0 0 0 0 0 0 0 0 0 0
0 0 0 0 0 0 0 0 0 0 0 0 0 0 0 0 0 0 0 0 0 0 0 0 0 0 0 0 0 0 0 0 0 0 0 0 0 0 0 0 0 0 0
Wind_Speed_500mb
34 48 53 51 47 46 46 45 43 41 39 37 34 32 31 34 34 30 26 24 21 18 19 25 32 29 31 27 21 32 34 36 32 34 36 35 32 28 32 28 32 33 31
31 45 53 53 48 45 44 45 43 43 41 38 35 34 34 36 37 34 31 33 26 31 30 28 20 29 24 26 34 36 35 36 35 33 34 36 33 29 29 30 33 27 33
29 39 51 54 50 46 43 45 44 43 42 37 36 34 33 36 35 35 39 37 34 34 36 34 23 33 23 27 30 39 37 36 30 25 28 28 27 26 27 29 27 26 32
25 28 50 54 52 50 45 45 45 44 44 38 36 34 33 32 30 29 32 32 29 29 31 30 26 37 33 28 39 35 32 28 25 28 21 23 24 24 27 25 24 26 33
29 27 38 54 54 52 50 46 45 46 45 42 37 34 32 30 28 27 31 38 36 39 35 34 34 36 34 38 40 36 28 22 23 22 20 18 23 25 24 21 23 32 36
30 29 33 51 54 54 52 50 47 47 46 43 40 35 33 30 28 31 34 39 32 27 35 34 36 34 36 41 38 34 28 22 19 19 15 16 15 18 19 19 24 28 37
35 33 37 46 53 55 53 52 50 49 46 45 41 36 35 33 33 33 34 30 28 34 38 32 33 30 34 37 37 34 31 21 15 15 14 13 14 20 21 23 23 26 27
30 36 39 41 53 57 57 54 53 51 48 47 42 38 38 37 37 34 32 26 31 34 34 30 31 30 32 33 36 36 29 24 17 15 14 12 14 20 22 24 27 27 28
32 38 43 42 53 58 59 57 54 53 51 48 43 41 41 40 38 34 30 27 30 34 33 31 30 29 30 33 36 34 29 22 18 17 13 13 17 19 22 23 25 26 26
32 36 42 44 51 60 62 59 56 55 54 51 46 44 44 42 40 36 31 29 23 23 32 28 30 28 29 31 33 33 29 24 21 20 16 14 15 20 24 23 22 23 25
42 42 44 45 53 60 65 63 58 56 56 53 48 47 47 46 43 40 37 33 25 24 26 29 27 28 26 28 31 32 29 26 22 23 19 16 16 20 25 24 25 22 24
44 45 50 53 55 61 64 64 63 61 60 59 55 53 51 49 45 42 39 35 29 22 20 27 27 27 27 26 29 32 28 25 22 19 17 17 20 26 24 26 26 26 25
39 49 56 58 62 61 64 67 67 66 65 63 60 58 56 54 48 45 44 45 39 29 23 32 32 31 28 28 27 28 29 25 22 19 17 15 19 23 25 26 28 29 27
33 36 49 56 65 66 62 69 72 72 70 67 64 62 61 60 57 51 48 48 44 36 27 30 33 33 31 29 29 30 29 24 23 21 18 19 18 21 19 23 27 30 24
17 24 34 35 55 67 74 71 75 76 75 72 68 64 64 65 65 57 53 50 48 42 31 30 34 36 35 34 33 31 31 26 26 25 23 20 22 24 22 21 27 34 32
19 19 22 30 35 48 63 72 77 80 77 75 71 70 70 68 67 64 59 54 50 41 32 30 34 38 37 38 36 34 30 27 29 29 27 27 27 29 34 25 27 33 37
38 21 17 14 28 33 38 60 69 85 82 78 73 74 73 71 69 67 62 57 53 43 34 32 36 40 41 41 38 37 33 32 35 35 30 32 31 28 38 38 30 32 37
49 40 29 19 20 25 36 37 54 74 97 71 78 76 76 72 70 66 63 57 51 45 40 35 36 41 43 44 41 40 40 36 35 38 35 34 34 25 27 42 38 34 36
59 47 41 36 24 25 29 35 40 53 67 81 80 77 80 74 71 69 64 58 51 49 46 39 35 38 41 43 39 37 36 36 35 37 36 36 38 30 30 33 46 44 41
59 65 57 45 38 30 32 35 33 44 71 81 84 77 79 77 75 74 69 60 54 53 49 42 40 37 38 39 37 35 32 35 32 35 37 39 41 37 36 37 39 48 51
42 45 49 51 41 39 40 38 42 41 70 78 74 78 70 69 72 75 72 67 64 62 52 47 44 42 43 43 39 39 40 41 39 40 45 48 47 45 44 45 42 42 47
45 42 37 42 45 42 41 44 46 45 57 62 72 71 62 72 77 77 73 72 66 61 54 54 51 51 48 49 53 45 40 50 51 47 54 53 53 51 53 52 49 49 47
49 49 49 50 43 43 41 44 43 48 55 66 60 71 74 75 80 81 78 78 74 61 60 57 58 56 53 56 58 43 24 28 36 56 63 60 59 61 60 60 60 60 53
54 48 47 52 53 47 41 45 50 59 58 66 65 68 73 67 82 82 78 74 70 69 68 64 63 60 59 61 61 68 57 27 26 25 57 72 71 70 67 67 69 67 61
51 51 43 41 51 55 52 50 53 56 54 70 70 72 77 75 80 81 88 71 72 74 68 67 68 68 65 63 65 71 72 74 53 50 44 40 56 74 78 75 75 71 67
50 50 41 34 37 43 50 57 56 54 60 58 73 67 72 61 53 79 63 71 78 80 69 77 73 75 73 72 71 75 77 82 87 71 65 61 60 55 55 64 73 71 71
Wind_Direction_500mb
172 181 176 179 180 175 171 169 166 165 161 156 153 148 150 158 161 167 172 172 155 148 145 128 149 155 172 166 136 131 137 128 130 122 118 113 115 112 127 127 108 108 108
167 181 181 180 182 181 176 173 170 168 167 162 157 151 147 149 147 142 134 135 120 128 128 138 142 154 163 164 138 137 137 135 128 123 123 123 125 116 126 114 112 111 118
180 180 186 185 184 184 184 179 175 173 171 168 162 158 154 152 152 150 150 152 158 145 151 148 144 129 131 142 138 146 127 124 124 131 127 133 130 122 121 114 113 124 125
186 184 191 191 187 185 188 187 181 178 176 173 169 164 163 160 159 157 162 171 183 153 146 152 141 144 138 143 135 133 128 128 119 112 125 137 128 124 122 129 127 124 127
187 189 195 194 191 187 187 190 187 183 181 177 175 170 169 167 164 158 152 153 150 163 153 151 149 157 147 140 134 132 135 138 135 125 117 132 137 138 139 135 133 139 127
191 188 192 197 193 189 188 188 192 190 184 182 179 176 176 173 168 158 157 168 175 161 161 156 155 147 151 148 143 140 137 143 142 126 120 126 143 131 135 129 136 142 144
196 187 186 199 198 194 192 191 192 194 188 188 184 181 181 176 171 169 170 176 181 163 162 171 169 158 155 157 160 158 158 167 159 154 149 137 141 142 136 142 131 132 134
208 191 191 195 200 196 194 194 193 193 195 193 190 186 186 178 178 177 180 185 188 173 166 169 167 165 165 164 166 168 167 168 164 154 155 142 153 145 147 143 141 139 140
199 196 194 196 199 198 196 196 195 194 196 198 196 192 190 181 182 183 185 185 195 172 170 169 168 168 167 169 171 173 176 180 183 180 165 172 171 166 160 157 154 152 153
203 197 199 200 196 197 198 197 196 198 198 198 201 198 193 186 185 187 188 190 195 176 173 180 174 177 174 173 177 180 182 188 201 197 191 173 182 184 175 170 167 169 169
207 205 201 209 207 203 200 197 197 201 201 199 202 202 195 190 188 189 189 195 189 196 185 178 178 180 183 179 182 188 190 190 196 193 190 191 198 191 188 185 183 185 189
215 204 211 206 213 213 204 199 199 202 202 202 200 202 200 197 193 191 192 197 200 198 188 197 194 187 190 189 189 191 193 197 200 201 201 200 199 200 206 208 206 199 197
217 227 215 211 209 216 212 204 203 204 205 205 201 204 203 203 201 196 195 198 204 212 207 204 200 198 196 196 193 196 202 211 216 213 221 226 212 216 222 216 211 208 207
202 225 229 222 214 212 217 213 207 206 206 206 205 205 204 206 206 203 202 203 207 218 219 216 210 205 203 205 200 200 205 218 228 227 232 236 226 216 221 217 210 203 205
201 221 219 229 225 221 217 216 214 210 208 208 208 209 209 208 208 207 208 209 210 216 221 223 216 212 211 211 208 207 210 218 230 233 241 241 240 228 214 222 220 212 207
240 220 223 220 226 229 227 224 219 217 212 211 211 213 213 214 210 207 214 213 215 217 224 229 225 218 216 218 218 218 219 223 231 238 243 252 256 235 223 221 227 219 215
251 238 222 215 226 233 236 237 229 219 214 216 217 217 218 215 214 211 215 215 220 219 224 225 220 218 218 222 227 230 230 231 236 239 244 252 265 250 230 225 224 220 220
256 250 236 241 236 233 245 251 246 224 209 215 219 220 221 218 218 217 216 216 220 220 224 225 222 219 219 222 226 229 232 231 231 237 243 251 265 259 246 228 230 221 218
248 252 246 244 243 246 243 252 263 251 211 221 226 227 224 219 219 220 220 219 218 223 223 228 228 227 225 225 229 231 235 237 234 234 234 240 254 256 260 242 233 231 226
245 251 244 243 241 248 254 249 256 250 241 209 206 222 224 219 219 219 218 219 221 227 226 231 234 232 233 231 234 237 240 240 234 228 237 248 249 253 253 253 241 236 238
236 236 247 239 236 240 244 248 246 242 235 220 209 215 215 218 217 218 219 216 220 227 234 235 234 231 230 226 230 239 237 235 232 231 239 243 245 247 249 248 257 243 244
249 255 247 244 239 236 231 244 252 259 244 223 211 210 216 223 221 220 219 217 224 227 229 236 232 231 229 224 222 230 239 242 238 238 241 246 250 252 252 252 257 262 251
255 254 249 247 240 231 225 231 243 245 246 230 209 231 225 225 225 220 219 218 225 229 229 239 234 231 233 226 224 219 218 230 236 234 239 244 248 251 251 253 255 262 262
250 253 250 245 242 238 233 231 238 242 242 234 219 219 230 228 230 228 221 220 226 230 240 242 237 236 234 233 226 226 231 238 219 236 240 243 246 247 249 252 258 260 261
253 242 249 250 241 240 240 234 238 240 244 229 231 232 229 229 225 233 223 221 230 233 241 241 241 236 238 240 235 234 233 235 245 249 254 249 245 247 247 250 255 259 256
242 232 240 244 235 237 238 239 243 235 237 242 238 234 227 231 238 244 236 241 234 234 236 245 244 244 243 242 243 237 238 235 236 240 247 253 255 259 260 257 256 255 253
Wind_Speed_850mb
34 48 53 51 47 46 46 45 43 41 39 37 34 32 31 34 34 30 26 24 21 18 19 25 32 29 31 27 21 32 34 36 32 34 36 35 32 28 32 28 32 33 31
31 45 53 53 48 45 44 45 43 43 41 38 35 34 34 36 37 34 31 33 26 31 30 28 20 29 24 26 34 36 35 36 35 33 34 36 33 29 29 30 33 27 33
29 39 51 54 50 46 43 45 44 43 42 37 36 34 33 36 35 35 39 37 34 34 36 34 23 33 23 27 30 39 37 36 30 25 28 28 27 26 27 29 27 26 32
25 28 50 54 52 50 45 45 45 44 44 38 36 34 33 32 30 29 32 32 29 29 31 30 26 37 33 28 39 35 32 28 25 28 21 23 24 24 27 25 24 26 33
29 27 38 54 54 52 50 46 45 46 45 42 37 34 32 30 28 27 31 38 36 39 35 34 34 36 34 38 40 36 28 22 23 22 20 18 23 25 24 21 23 32 36
30 29 33 51 54 54 52 50 47 47 46 43 40 35 33 30 28 31 34 39 32 27 35 34 36 34 36 41 38 34 28 22 19 19 15 16 15 18 19 19 24 28 37
35 33 37 46 53 55 53 52 50 49 46 45 41 36 35 33 33 33 34 30 28 34 38 32 33 30 34 37 37 34 31 21 15 15 14 13 14 20 21 23 23 26 27
30 36 39 41 53 57 57 54 53 51 48 47 42 38 38 37 37 34 32 26 31 34 34 30 31 30 32 33 36 36 29 24 17 15 14 12 14 20 22 24 27 27 28
32 38 43 42 53 58 59 57 54 53 51 48 43 41 41 40 38 34 30 27 30 34 33 31 30 29 30 33 36 34 29 22 18 17 13 13 17 19 22 23 25 26 26
32 36 42 44 51 60 62 59 56 55 54 51 46 44 44 42 40 36 31 29 23 23 32 28 30 28 29 31 33 33 29 24 21 20 16 14 15 20 24 23 22 23 25
42 42 44 45 53 60 65 63 58 56 56 53 48 47 47 46 43 40 37 33 25 24 26 29 27 28 26 28 31 32 29 26 22 23 19 16 16 20 25 24 25 22 24
44 45 50 53 55 61 64 64 63 61 60 59 55 53 51 49 45 42 39 35 29 22 20 27 27 27 27 26 29 32 28 25 22 19 17 17 20 26 24 26 26 26 25
39 49 56 58 62 61 64 67 67 66 65 63 60 58 56 54 48 45 44 45 39 29 23 32 32 31 28 28 27 28 29 25 22 19 17 15 19 23 25 26 28 29 27
33 36 49 56 65 66 62 69 72 72 70 67 64 62 61 60 57 51 48 48 44 36 27 30 33 33 31 29 29 30 29 24 23 21 18 19 18 21 19 23 27 30 24
17 24 34 35 55 67 74 71 75 76 75 72 68 64 64 65 65 57 53 50 48 42 31 30 34 36 35 34 33 31 31 26 26 25 23 20 22 24 22 21 27 34 32
19 19 22 30 35 48 63 72 77 80 77 75 71 70 70 68 67 64 59 54 50 41 32 30 34 38 37 38 36 34 30 27 29 29 27 27 27 29 34 25 27 33 37
38 21 17 14 28 33 38 60 69 85 82 78 73 74 73 71 69 67 62 57 53 43 34 32 36 40 41 41 38 37 33 32 35 35 30 32 31 28 38 38 30 32 37
49 40 29 19 20 25 36 37 54 74 97 71 78 76 76 72 70 66 63 57 51 45 40 35 36 41 43 44 41 40 40 36 35 38 35 34 34 25 27 42 38 34 36
59 47 41 36 24 25 29 35 40 53 67 81 80 77 80 74 71 69 64 58 51 49 46 39 35 38 41 43 39 37 36 36 35 37 36 36 38 30 30 33 46 44 41
59 65 57 45 38 30 32 35 33 44 71 81 84 77 79 77 75 74 69 60 54 53 49 42 40 37 38 39 37 35 32 35 32 35 37 39 41 37 36 37 39 48 51
42 45 49 51 41 39 40 38 42 41 70 78 74 78 70 69 72 75 72 67 64 62 52 47 44 42 43 43 39 39 40 41 39 40 45 48 47 45 44 45 42 42 47
45 42 37 42 45 42 41 44 46 45 57 62 72 71 62 72 77 77 73 72 66 61 54 54 51 51 48 49 53 45 40 50 51 47 54 53 53 51 53 52 49 49 47
49 49 49 50 43 43 41 44 43 48 55 66 60 71 74 75 80 81 78 78 74 61 60 57 58 56 53 56 58 43 24 28 36 56 63 60 59 61 60 60 60 60 53
54 48 47 52 53 47 41 45 50 59 58 66 65 68 73 67 82 82 78 74 70 69 68 64 63 60 59 61 61 68 57 27 26 25 57 72 71 70 67 67 69 67 61
51 51 43 41 51 55 52 50 53 56 54 70 70 72 77 75 80 81 88 71 72 74 68 67 68 68 65 63 65 71 72 74 53 50 44 40 56 74 78 75 75 71 67
50 50 41 34 37 43 50 57 56 54 60 58 73 67 72 61 53 79 63 71 78 80 69 77 73 75 73 72 71 75 77 82 87 71 65 61 60 55 55 64 73 71 71
Wind_Direction_850mb
172 181 176 179 180 175 171 169 166 165 161 156 153 148 150 158 161 167 172 172 155 148 145 128 149 155 172 166 136 131 137 128 130 122 118 113 115 112 127 127 108 108 108
167 181 181 180 182 181 176 173 170 168 167 162 157 151 147 149 147 142 134 135 120 128 128 138 142 154 163 164 138 137 137 135 128 123 123 123 125 116 126 114 112 111 118
180 180 186 185 184 184 184 179 175 173 171 168 162 158 154 152 152 150 150 152 158 145 151 148 144 129 131 142 138 146 127 124 124 131 127 133 130 122 121 114 113 124 125
186 184 191 191 187 185 188 187 181 178 176 173 169 164 163 160 159 157 162 171 183 153 146 152 141 144 138 143 135 133 128 128 119 112 125 137 128 124 122 129 127 124 127
187 189 195 194 191 187 187 190 187 183 181 177 175 170 169 167 164 158 152 153 150 163 153 151 149 157 147 140 134 132 135 138 135 125 117 132 137 138 139 135 133 139 127
191 188 192 197 193 189 188 188 192 190 184 182 179 176 176 173 168 158 157 168 175 161 161 156 155 147 151 148 143 140 137 143 142 126 120 126 143 131 135 129 136 142 144
196 187 186 199 198 194 192 191 192 194 188 188 184 181 181 176 171 169 170 176 181 163 162 171 169 158 155 157 160 158 158 167 159 154 149 137 141 142 136 142 131 132 134
208 191 191 195 200 196 194 194 193 193 195 193 190 186 186 178 178 177 180 185 188 173 166 169 167 165 165 164 166 168 167 168 164 154 155 142 153 145 147 143 141 139 140
199 196 194 196 199 198 196 196 195 194 196 198 196 192 190 181 182 183 185 185 195 172 170 169 168 168 167 169 171 173 176 180 183 180 165 172 171 166 160 157 154 152 153
203 197 199 200 196 197 198 197 196 198 198 198 201 198 193 186 185 187 188 190 195 176 173 180 174 177 174 173 177 180 182 188 201 197 191 173 182 184 175 170 167 169 169
207 205 201 209 207 203 200 197 197 201 201 199 202 202 195 190 188 189 189 195 189 196 185 178 178 180 183 179 182 188 190 190 196 193 190 191 198 191 188 185 183 185 189
215 204 211 206 213 213 204 199 199 202 202 202 200 202 200 197 193 191 192 197 200 198 188 197 194 187 190 189 189 191 193 197 200 201 201 200 199 200 206 208 206 199 197
217 227 215 211 209 216 212 204 203 204 205 205 201 204 203 203 201 196 195 198 204 212 207 204 200 198 196 196 193 196 202 211 216 213 221 226 212 216 222 216 211 208 207
202 225 229 222 214 212 217 213 207 206 206 206 205 205 204 206 206 203 202 203 207 218 219 216 210 205 203 205 200 200 205 218 228 227 232 236 226 216 221 217 210 203 205
201 221 219 229 225 221 217 216 214 210 208 208 208 209 209 208 208 207 208 209 210 216 221 223 216 212 211 211 208 207 210 218 230 233 241 241 240 228 214 222 220 212 207
240 220 223 220 226 229 227 224 219 217 212 211 211 213 213 214 210 207 214 213 215 217 224 229 225 218 216 218 218 218 219 223 231 238 243 252 256 235 223 221 227 219 215
251 238 222 215 226 233 236 237 229 219 214 216 217 217 218 215 214 211 215 215 220 219 224 225 220 218 218 222 227 230 230 231 236 239 244 252 265 250 230 225 224 220 220
256 250 236 241 236 233 245 251 246 224 209 215 219 220 221 218 218 217 216 216 220 220 224 225 222 219 219 222 226 229 232 231 231 237 243 251 265 259 246 228 230 221 218
248 252 246 244 243 246 243 252 263 251 211 221 226 227 224 219 219 220 220 219 218 223 223 228 228 227 225 225 229 231 235 237 234 234 234 240 254 256 260 242 233 231 226
245 251 244 243 241 248 254 249 256 250 241 209 206 222 224 219 219 219 218 219 221 227 226 231 234 232 233 231 234 237 240 240 234 228 237 248 249 253 253 253 241 236 238
236 236 247 239 236 240 244 248 246 242 235 220 209 215 215 218 217 218 219 216 220 227 234 235 234 231 230 226 230 239 237 235 232 231 239 243 245 247 249 248 257 243 244
249 255 247 244 239 236 231 244 252 259 244 223 211 210 216 223 221 220 219 217 224 227 229 236 232 231 229 224 222 230 239 242 238 238 241 246 250 252 252 252 257 262 251
255 254 249 247 240 231 225 231 243 245 246 230 209 231 225 225 225 220 219 218 225 229 229 239 234 231 233 226 224 219 218 230 236 234 239 244 248 251 251 253 255 262 262
250 253 250 245 242 238 233 231 238 242 242 234 219 219 230 228 230 228 221 220 226 230 240 242 237 236 234 233 226 226 231 238 219 236 240 243 246 247 249 252 258 260 261
253 242 249 250 241 240 240 234 238 240 244 229 231 232 229 229 225 233 223 221 230 233 241 241 241 236 238 240 235 234 233 235 245 249 254 249 245 247 247 250 255 259 256
242 232 240 244 235 237 238 239 243 235 237 242 238 234 227 231 238 244 236 241 234 234 236 245 244 244 243 242 243 237 238 235 236 240 247 253 255 259 260 257 256 255 253